Hourly Data Report for September 29, 2020

TORONTO CITY
ONTARIO
Current Station Operator: ECCC - MSC

43°40'00.000" N
79°24'00.000" W
112.50 m
6158355
71508
XTO

Download Data

Hourly Data (September 2020)
Hourly Data Report for September 29, 2020
TIME
LST
Temp Definition
°C
Dew Point Definition
°C
Rel Hum Definition
%
Precip. Amount Definition
mm

Wind Dir Definition
10's deg

Wind Spd Definition
km/h
Visibility Definition
km
Stn Press Definition
kPa
Hmdx Definition


Wind Chill Definition


Weather Definition


00:00 16.0 13.7 86 3.1       99.07     LegendNANA
01:00 15.5 13.4 87 0.9       99.18     LegendNANA
02:00 14.9 12.4 85 1.0       99.24     LegendNANA
03:00 14.4 11.8 84 0.0       99.34     LegendNANA
04:00 14.3 11.7 85 0.0       99.38     LegendNANA
05:00 14.1 11.3 83 0.0       99.46     LegendNANA
06:00 13.7 10.4 81 0.0       99.50     LegendNANA
07:00 13.7 10.0 78 0.0       99.59     LegendNANA
08:00 14.2 9.5 74 0.0       99.62     LegendNANA
09:00 15.0 9.4 69 0.0       99.65     LegendNANA
10:00 16.4 9.2 63 0.0       99.66     LegendNANA
11:00 17.0 8.6 57 0.0       99.63     LegendNANA
12:00 17.5 8.7 56 0.0       99.64     LegendNANA
13:00 17.2 8.3 56 0.0       99.59     LegendNANA
14:00 16.8 9.1 60 0.0       99.53     LegendNANA
15:00 18.4 9.2 55 0.0       99.48     LegendNANA
16:00 17.5 9.6 60 0.0       99.47     LegendNANA
17:00 17.1 8.4 56 0.0       99.46     LegendNANA
18:00 16.8 9.1 60 0.0       99.43     LegendNANA
19:00 17.0 9.7 62 0.0       99.45     LegendNANA
20:00 14.2 11.5 84 3.8       99.43     LegendNANA
21:00 14.5 11.7 83 0.0       99.34     LegendNANA
22:00 14.4 11.3 82 0.0       99.24     LegendNANA
23:00 15.2 10.6 74 0.0       99.17     LegendNANA

Notes on Data Quality.

Legend

  • E = Estimated
  • M = Missing
  • NA = Not Available*
  • [empty] = Indicates an unobserved value
Date modified: